ASPEN51 KBAB-PHNL

Flight info

Callsign ASPEN51
Flight time N/A
Altitude 25000
Route ILA PEENO PAINT ALCOA R463 AUNTI APACK ATINE
Aircraft SR71/L-SDFHIRY/S

Departure

Time 2026-04-17 20:47
Airport Beale Air Force Base (KBAB)

Arrival

Time N/A
Airport Daniel K. Inouye International Airport (PHNL)
Time Latitude Longitude Altitude Speed Heading
2026-04-17 20:17 39.14367 -121.43259 112 ft 0 kts 162°
2026-04-17 20:37 39.14338 -121.43264 113 ft 9 kts 189°
2026-04-17 20:37 39.14270 -121.43253 113 ft 11 kts 163°
2026-04-17 20:37 39.14176 -121.43213 112 ft 22 kts 162°
2026-04-17 20:37 39.14079 -121.43240 112 ft 12 kts 246°
2026-04-17 20:38 39.14039 -121.43293 111 ft 6 kts 197°
2026-04-17 20:38 39.14016 -121.43295 112 ft 1 kts 176°
2026-04-17 20:38 39.13980 -121.43285 112 ft 8 kts 164°
2026-04-17 20:38 39.13913 -121.43255 112 ft 11 kts 161°
2026-04-17 20:39 39.13837 -121.43222 112 ft 14 kts 162°
2026-04-17 20:39 39.13682 -121.43160 111 ft 24 kts 162°
2026-04-17 20:39 39.13539 -121.43094 111 ft 21 kts 161°
2026-04-17 20:39 39.13412 -121.43039 111 ft 17 kts 161°
2026-04-17 20:40 39.13301 -121.42990 111 ft 17 kts 161°
2026-04-17 20:40 39.13135 -121.42920 110 ft 24 kts 161°
2026-04-17 20:40 39.12996 -121.42859 110 ft 18 kts 161°
2026-04-17 20:40 39.12896 -121.42815 109 ft 14 kts 160°
2026-04-17 20:41 39.12790 -121.42769 109 ft 24 kts 161°
2026-04-17 20:41 39.12639 -121.42704 109 ft 20 kts 161°
2026-04-17 20:41 39.12519 -121.42652 109 ft 17 kts 161°
2026-04-17 20:41 39.12376 -121.42590 108 ft 22 kts 161°
2026-04-17 20:42 39.12254 -121.42542 108 ft 15 kts 174°
2026-04-17 20:42 39.12171 -121.42534 108 ft 9 kts 176°
2026-04-17 20:42 39.12130 -121.42532 108 ft 3 kts 180°
2026-04-17 20:42 39.12108 -121.42540 108 ft 10 kts 208°
2026-04-17 20:43 39.12085 -121.42592 108 ft 4 kts 249°
2026-04-17 20:43 39.12068 -121.42651 108 ft 9 kts 251°
2026-04-17 20:43 39.12050 -121.42719 108 ft 13 kts 250°
2026-04-17 20:43 39.12066 -121.42803 108 ft 7 kts 309°
2026-04-17 20:44 39.12084 -121.42830 108 ft 1 kts 308°
2026-04-17 20:44 39.12093 -121.42863 108 ft 0 kts 274°
2026-04-17 20:45 39.12085 -121.42928 108 ft 13 kts 257°
2026-04-17 20:45 39.12090 -121.42999 109 ft 5 kts 322°
2026-04-17 20:45 39.12102 -121.43007 109 ft 0 kts 340°
2026-04-17 20:47 39.12161 -121.43033 108 ft 56 kts 341°
2026-04-17 20:47 39.13137 -121.43467 201 ft 233 kts 340°
2026-04-17 20:47 39.15161 -121.44415 942 ft 371 kts 339°
2026-04-17 20:47 39.17686 -121.45717 1939 ft 403 kts 336°
2026-04-17 20:48 39.20298 -121.47161 2563 ft 413 kts 335°
2026-04-17 20:48 39.22944 -121.48686 3193 ft 421 kts 335°
2026-04-17 20:48 39.25587 -121.50277 4125 ft 416 kts 333°
2026-04-17 20:48 39.27848 -121.52523 5152 ft 412 kts 306°
2026-04-17 20:49 39.28840 -121.55911 6059 ft 406 kts 269°
2026-04-17 20:49 39.28112 -121.59346 6966 ft 402 kts 242°
2026-04-17 20:49 39.26772 -121.62496 7970 ft 390 kts 239°
2026-04-17 20:49 39.25399 -121.65338 9805 ft 368 kts 238°
2026-04-17 20:50 39.23980 -121.68054 10856 ft 358 kts 236°
2026-04-17 20:50 39.22561 -121.70627 12029 ft 358 kts 237°
2026-04-17 20:50 39.21133 -121.73241 13455 ft 354 kts 239°
2026-04-17 20:50 39.19817 -121.75884 14863 ft 347 kts 240°
2026-04-17 20:51 39.18546 -121.78519 16086 ft 347 kts 241°
2026-04-17 20:51 39.17267 -121.81185 17017 ft 354 kts 241°
2026-04-17 20:51 39.15846 -121.83869 17708 ft 372 kts 236°
2026-04-17 20:51 39.14229 -121.86580 18351 ft 390 kts 236°
2026-04-17 20:52 39.12558 -121.89396 19015 ft 401 kts 236°
2026-04-17 20:52 39.10845 -121.92263 19914 ft 405 kts 236°
2026-04-17 20:52 39.09099 -121.95090 21028 ft 402 kts 234°
2026-04-17 20:52 39.07304 -121.97821 22189 ft 399 kts 232°
2026-04-17 20:53 39.05422 -122.00460 23128 ft 400 kts 236°
2026-04-17 20:53 39.03897 -122.03501 23130 ft 417 kts 250°
2026-04-17 20:53 39.02867 -122.07076 23224 ft 429 kts 257°
2026-04-17 20:53 39.02110 -122.10759 24161 ft 423 kts 257°
2026-04-17 20:54 39.01204 -122.14326 25188 ft 417 kts 252°
2026-04-17 20:54 39.00080 -122.17750 26002 ft 418 kts 251°
2026-04-17 20:54 38.98899 -122.21369 25125 ft 458 kts 251°
2026-04-17 20:54 38.97763 -122.25251 25084 ft 472 kts 255°
2026-04-17 20:55 38.96778 -122.29363 24866 ft 489 kts 257°
2026-04-17 20:55 38.95850 -122.33621 24955 ft 500 kts 258°
2026-04-17 20:55 38.94905 -122.37947 25151 ft 507 kts 257°
2026-04-17 20:55 38.93903 -122.42313 25295 ft 511 kts 256°
2026-04-17 20:56 38.93203 -122.45185 25314 ft 509 kts 254°
2026-04-17 20:56 38.91980 -122.49437 25294 ft 507 kts 251°
2026-04-17 20:56 38.90664 -122.53631 25238 ft 504 kts 252°
2026-04-17 20:56 38.89450 -122.57835 25223 ft 502 kts 253°
2026-04-17 20:57 38.88315 -122.62062 25188 ft 499 kts 254°
2026-04-17 20:57 38.87223 -122.66290 25167 ft 498 kts 255°
2026-04-17 20:57 38.86174 -122.70433 25100 ft 464 kts 255°
2026-04-17 20:57 38.85256 -122.74141 24974 ft 411 kts 257°
2026-04-17 20:58 38.84568 -122.77485 24883 ft 368 kts 258°
2026-04-17 20:58 38.83852 -122.80579 24663 ft 366 kts 256°
2026-04-17 20:58 38.83030 -122.83814 24399 ft 399 kts 251°
2026-04-17 20:58 38.81799 -122.87127 24469 ft 422 kts 245°
2026-04-17 20:59 38.80353 -122.90511 24514 ft 440 kts 245°
2026-04-17 20:59 38.78980 -122.94090 24613 ft 455 kts 248°
2026-04-17 20:59 38.77591 -122.97823 24752 ft 468 kts 247°
2026-04-17 20:59 38.76137 -123.01646 24785 ft 486 kts 246°
2026-04-17 21:00 38.74614 -123.05569 24759 ft 486 kts 248°
2026-04-17 21:00 38.73288 -123.09477 24708 ft 478 kts 250°
2026-04-17 21:00 38.71978 -123.13363 24804 ft 477 kts 250°
2026-04-17 21:00 38.70662 -123.17284 24875 ft 482 kts 250°
2026-04-17 21:01 38.69387 -123.21301 24863 ft 493 kts 251°
2026-04-17 21:01 38.68068 -123.25365 24875 ft 507 kts 248°
2026-04-17 21:01 38.66562 -123.29517 24839 ft 521 kts 247°
2026-04-17 21:01 38.65063 -123.33801 24856 ft 531 kts 250°
2026-04-17 21:02 38.63640 -123.38217 24693 ft 543 kts 250°
2026-04-17 21:02 38.62184 -123.42632 24564 ft 534 kts 249°
2026-04-17 21:02 38.60768 -123.46856 24627 ft 483 kts 249°
2026-04-17 21:02 38.59444 -123.50515 24631 ft 429 kts 248°
2026-04-17 21:03 38.58207 -123.53939 24740 ft 425 kts 248°
2026-04-17 21:03 38.56997 -123.57418 24863 ft 437 kts 249°
2026-04-17 21:03 38.55765 -123.61069 24889 ft 459 kts 249°
2026-04-17 21:03 38.54462 -123.64888 24866 ft 477 kts 250°
2026-04-17 21:04 38.53167 -123.68829 25199 ft 486 kts 250°
2026-04-17 21:04 38.51797 -123.72865 25087 ft 503 kts 249°
2026-04-17 21:04 38.50356 -123.76987 25099 ft 516 kts 248°
2026-04-17 21:04 38.48853 -123.81210 25013 ft 529 kts 248°
2026-04-17 21:05 38.47454 -123.85601 24851 ft 538 kts 253°
2026-04-17 21:05 38.46252 -123.90123 24787 ft 542 kts 253°
2026-04-17 21:05 38.45064 -123.94727 25134 ft 555 kts 254°
2026-04-17 21:05 38.43877 -123.99476 26075 ft 571 kts 255°
2026-04-17 21:06 38.42660 -124.04403 26160 ft 593 kts 255°
2026-04-17 21:06 38.41479 -124.09425 26827 ft 601 kts 256°
2026-04-17 21:06 38.40329 -124.14587 28174 ft 613 kts 256°
2026-04-17 21:06 38.39161 -124.19875 28692 ft 626 kts 256°
2026-04-17 21:07 38.38003 -124.25257 29272 ft 626 kts 257°
2026-04-17 21:07 38.36870 -124.30583 30345 ft 624 kts 257°
2026-04-17 21:07 38.35688 -124.35926 30744 ft 629 kts 254°
2026-04-17 21:07 38.34234 -124.41306 30492 ft 660 kts 251°
2026-04-17 21:08 38.32450 -124.46926 29433 ft 707 kts 249°
2026-04-17 21:08 38.30488 -124.52807 29728 ft 721 kts 248°
2026-04-17 21:08 38.28474 -124.58636 31963 ft 720 kts 248°
2026-04-17 21:08 38.26453 -124.64496 33341 ft 727 kts 248°
2026-04-17 21:09 38.24406 -124.70425 34480 ft 735 kts 248°
2026-04-17 21:09 38.22343 -124.76402 35349 ft 740 kts 248°
2026-04-17 21:09 38.20264 -124.82421 36360 ft 746 kts 248°
2026-04-17 21:09 38.18168 -124.88499 37078 ft 756 kts 248°
2026-04-17 21:10 38.16030 -124.94698 37210 ft 774 kts 248°
2026-04-17 21:10 38.13876 -125.00959 36975 ft 796 kts 248°
2026-04-17 21:10 38.11641 -125.07463 37533 ft 809 kts 248°
2026-04-17 21:10 38.09382 -125.14039 38681 ft 817 kts 248°
2026-04-17 21:11 38.07183 -125.20738 39617 ft 827 kts 251°
2026-04-17 21:11 38.05237 -125.27681 40055 ft 844 kts 253°
2026-04-17 21:11 38.03442 -125.34878 40283 ft 865 kts 254°
2026-04-17 21:11 38.01646 -125.42228 40939 ft 883 kts 254°
2026-04-17 21:12 37.99820 -125.49726 42086 ft 895 kts 254°
2026-04-17 21:12 37.97971 -125.57326 43083 ft 912 kts 253°
2026-04-17 21:12 37.95622 -125.64895 43746 ft 934 kts 244°
2026-04-17 21:12 37.92383 -125.72160 43916 ft 964 kts 238°
2026-04-17 21:13 37.88499 -125.79252 44123 ft 996 kts 234°
2026-04-17 21:13 37.84139 -125.86247 44894 ft 1026 kts 233°
2026-04-17 21:13 37.80039 -125.93692 46257 ft 1041 kts 243°
2026-04-17 21:13 37.76786 -126.01932 47957 ft 1058 kts 249°
2026-04-17 21:14 37.74047 -126.10679 49520 ft 1083 kts 252°
2026-04-17 21:14 37.71644 -126.19822 50626 ft 1115 kts 255°
2026-04-17 21:14 37.69477 -126.29404 51348 ft 1154 kts 256°
2026-04-17 21:14 37.67303 -126.39226 52382 ft 1195 kts 254°
2026-04-17 21:15 37.64830 -126.49441 53872 ft 1237 kts 253°
2026-04-17 21:15 37.62131 -126.59944 55439 ft 1281 kts 252°
2026-04-17 21:15 37.59152 -126.70740 57034 ft 1326 kts 251°
2026-04-17 21:15 37.55920 -126.81827 58592 ft 1369 kts 250°
2026-04-17 21:16 37.52473 -126.93205 60170 ft 1410 kts 250°
2026-04-17 21:16 37.48838 -127.04861 61443 ft 1452 kts 249°
2026-04-17 21:16 37.45022 -127.16852 62294 ft 1496 kts 249°
2026-04-17 21:16 37.41065 -127.29149 63111 ft 1535 kts 250°
2026-04-17 21:17 37.37198 -127.41839 64256 ft 1569 kts 251°
2026-04-17 21:17 37.33458 -127.54858 65409 ft 1596 kts 252°
2026-04-17 21:17 37.29828 -127.68119 66944 ft 1616 kts 252°
2026-04-17 21:17 37.26277 -127.81604 68553 ft 1633 kts 253°
2026-04-17 21:18 37.22785 -127.95241 70151 ft 1653 kts 252°
2026-04-17 21:18 37.19141 -128.09049 71748 ft 1678 kts 252°
2026-04-17 21:18 37.15297 -128.22992 73344 ft 1707 kts 251°
2026-04-17 21:18 37.11323 -128.36937 74946 ft 1738 kts 251°
2026-04-17 21:19 37.07050 -128.51477 76607 ft 1774 kts 250°
2026-04-17 21:19 37.02610 -128.65831 78242 ft 1810 kts 249°
2026-04-17 21:19 36.97838 -128.80583 79906 ft 1847 kts 248°
2026-04-17 21:19 36.92833 -128.95518 81494 ft 1880 kts 248°
2026-04-17 21:20 36.87621 -129.10649 83218 ft 1909 kts 248°
2026-04-17 21:20 36.82334 -129.25964 84848 ft 1931 kts 248°
2026-04-17 21:20 36.77109 -129.41486 86545 ft 1947 kts 249°
2026-04-17 21:20 36.72127 -129.57235 88355 ft 1958 kts 250°
2026-04-17 21:21 36.67374 -129.73118 89979 ft 1950 kts 251°
2026-04-17 21:21 36.62841 -129.88980 91227 ft 1941 kts 252°
2026-04-17 21:21 36.58450 -130.04882 90466 ft 1947 kts 253°
2026-04-17 21:21 36.54145 -130.20889 86848 ft 1956 kts 253°
2026-04-17 21:22 36.49912 -130.37001 81879 ft 1958 kts 252°
2026-04-17 21:22 36.45501 -130.52884 78998 ft 1926 kts 251°
2026-04-17 21:22 36.40925 -130.68272 79598 ft 1871 kts 250°
2026-04-17 21:22 36.36301 -130.83190 80670 ft 1841 kts 249°
2026-04-17 21:23 36.31609 -130.97882 80973 ft 1827 kts 249°
2026-04-17 21:23 36.26844 -131.12434 80642 ft 1818 kts 249°
2026-04-17 21:23 36.22002 -131.26847 80285 ft 1799 kts 247°
2026-04-17 21:23 36.17069 -131.40762 80767 ft 1779 kts 246°
2026-04-17 21:24 36.11912 -131.54594 81565 ft 1767 kts 245°
2026-04-17 21:24 36.06594 -131.68313 82060 ft 1767 kts 244°
2026-04-17 21:24 35.95340 -131.95402 82144 ft 1773 kts 245°
2026-04-17 21:25 35.89780 -132.08964 82486 ft 1773 kts 245°
2026-04-17 21:25 35.84405 -132.22661 83017 ft 1779 kts 246°
2026-04-17 21:25 35.79171 -132.36493 83709 ft 1788 kts 247°
2026-04-17 21:25 35.74070 -132.50532 83929 ft 1800 kts 248°
2026-04-17 21:26 35.69120 -132.64725 83868 ft 1811 kts 249°
2026-04-17 21:26 35.64253 -132.79063 84110 ft 1819 kts 249°
2026-04-17 21:26 35.59470 -132.93481 84842 ft 1824 kts 249°
2026-04-17 21:26 35.54750 -133.07973 85594 ft 1832 kts 250°
2026-04-17 21:27 35.50060 -133.22576 85482 ft 1845 kts 250°
2026-04-17 21:27 35.45393 -133.37301 85128 ft 1854 kts 250°
2026-04-17 21:27 35.40766 -133.52070 84949 ft 1861 kts 250°
2026-04-17 21:27 35.36080 -133.66887 84618 ft 1867 kts 249°
2026-04-17 21:28 35.31260 -133.81671 84469 ft 1871 kts 249°
2026-04-17 21:28 35.26336 -133.96406 84264 ft 1873 kts 248°
2026-04-17 21:28 35.21313 -134.11127 84120 ft 1875 kts 248°
2026-04-17 21:28 35.16193 -134.25774 83960 ft 1876 kts 246°
2026-04-17 21:29 35.05238 -134.54739 83862 ft 1878 kts 245°
2026-04-17 21:29 34.93544 -134.83254 83731 ft 1878 kts 243°
2026-04-17 21:30 34.81437 -135.11177 83621 ft 1877 kts 242°
2026-04-17 21:30 34.68878 -135.39032 83484 ft 1877 kts 242°
2026-04-17 21:31 34.62499 -135.52866 83592 ft 1877 kts 242°
2026-04-17 21:31 34.56068 -135.66650 83587 ft 1876 kts 241°
2026-04-17 21:31 34.43082 -135.94078 83615 ft 1875 kts 241°
2026-04-17 21:32 34.29967 -136.21361 83550 ft 1875 kts 240°
2026-04-17 21:32 34.16756 -136.48530 83702 ft 1874 kts 240°
2026-04-17 21:33 34.03480 -136.75600 83709 ft 1874 kts 240°
2026-04-17 21:33 33.90161 -137.02569 83690 ft 1873 kts 240°
2026-04-17 21:34 33.76805 -137.29458 83689 ft 1873 kts 240°
2026-04-17 21:34 33.63631 -137.56428 83795 ft 1870 kts 242°
2026-04-17 21:35 33.57359 -137.70094 83890 ft 1869 kts 243°
2026-04-17 21:35 33.51271 -137.83865 84066 ft 1868 kts 244°
2026-04-17 21:35 33.45341 -137.97714 84039 ft 1868 kts 244°
2026-04-17 21:36 33.33859 -138.25586 84280 ft 1868 kts 245°
2026-04-17 21:36 33.22744 -138.53655 84410 ft 1869 kts 246°
2026-04-17 21:36 33.17291 -138.67737 84559 ft 1869 kts 246°
2026-04-17 21:37 33.11896 -138.81833 84665 ft 1870 kts 246°
2026-04-17 21:37 33.01207 -139.10157 84703 ft 1872 kts 247°
2026-04-17 21:37 32.95917 -139.24327 84826 ft 1873 kts 247°
2026-04-17 21:38 32.90711 -139.38351 84875 ft 1874 kts 247°
2026-04-17 21:38 32.85472 -139.52527 85043 ft 1875 kts 247°
2026-04-17 21:38 32.80239 -139.66743 84948 ft 1875 kts 247°
2026-04-17 21:38 32.75029 -139.80937 85176 ft 1876 kts 247°
2026-04-17 21:39 32.69830 -139.95137 85117 ft 1877 kts 247°
2026-04-17 21:39 32.64632 -140.09359 85263 ft 1877 kts 247°
2026-04-17 21:39 32.59438 -140.23591 85289 ft 1878 kts 247°
2026-04-17 21:39 32.54258 -140.37801 85405 ft 1879 kts 247°
2026-04-17 21:40 32.49087 -140.51997 85434 ft 1879 kts 247°
2026-04-17 21:40 32.43912 -140.66210 85595 ft 1880 kts 247°
2026-04-17 21:40 32.38739 -140.80417 85598 ft 1881 kts 247°
2026-04-17 21:40 32.33562 -140.94639 85736 ft 1881 kts 247°
2026-04-17 21:41 32.28379 -141.08875 85695 ft 1882 kts 247°
2026-04-17 21:41 32.18016 -141.37321 85971 ft 1884 kts 247°
2026-04-17 21:41 32.12807 -141.51475 86074 ft 1885 kts 246°
2026-04-17 21:42 32.07555 -141.65440 86092 ft 1886 kts 246°
2026-04-17 21:42 32.02155 -141.79533 86202 ft 1887 kts 246°
2026-04-17 21:42 31.96678 -141.93604 86110 ft 1889 kts 245°
2026-04-17 21:43 31.85555 -142.21634 85994 ft 1891 kts 245°
2026-04-17 21:43 31.74243 -142.49586 85790 ft 1892 kts 245°
2026-04-17 21:43 31.68479 -142.63439 85891 ft 1889 kts 241°
2026-04-17 21:44 31.62211 -142.76973 86397 ft 1885 kts 239°
2026-04-17 21:44 31.55485 -142.90163 86979 ft 1882 kts 237°
2026-04-17 21:44 31.48405 -143.03033 87822 ft 1880 kts 236°
2026-04-17 21:44 31.40999 -143.15696 88853 ft 1881 kts 236°
2026-04-17 21:45 31.33630 -143.28317 89897 ft 1882 kts 238°
2026-04-17 21:45 31.28797 -143.36994 90662 ft 1883 kts 239°
2026-04-17 21:45 31.21904 -143.49787 91775 ft 1886 kts 239°
2026-04-17 21:45 31.15030 -143.62859 92408 ft 1893 kts 240°
2026-04-17 21:46 31.08221 -143.76064 92576 ft 1907 kts 240°
2026-04-17 21:46 31.01432 -143.89437 91279 ft 1921 kts 241°
2026-04-17 21:46 30.94786 -144.02944 89897 ft 1929 kts 242°
2026-04-17 21:46 30.88320 -144.16679 88589 ft 1930 kts 243°
2026-04-17 21:47 30.82063 -144.30522 87990 ft 1925 kts 243°
2026-04-17 21:47 30.76029 -144.44327 87676 ft 1914 kts 244°
2026-04-17 21:47 30.70135 -144.58170 87240 ft 1908 kts 245°
2026-04-17 21:47 30.64333 -144.72035 86176 ft 1903 kts 244°
2026-04-17 21:48 30.58429 -144.85738 85042 ft 1897 kts 243°
2026-04-17 21:48 30.52354 -144.99274 84186 ft 1885 kts 241°
2026-04-17 21:48 30.46066 -145.12555 84303 ft 1872 kts 240°
2026-04-17 21:49 30.32930 -145.38455 84297 ft 1856 kts 239°
2026-04-17 21:49 30.19239 -145.63687 84244 ft 1846 kts 237°
2026-04-17 21:50 30.05169 -145.88422 84164 ft 1839 kts 238°
2026-04-17 21:50 29.91257 -146.13134 84035 ft 1832 kts 238°
2026-04-17 21:51 29.77706 -146.37957 84079 ft 1827 kts 239°
2026-04-17 21:51 29.71068 -146.50396 83958 ft 1825 kts 240°
2026-04-17 21:51 29.64558 -146.62922 84014 ft 1823 kts 240°
2026-04-17 21:51 29.58258 -146.75329 83877 ft 1821 kts 241°
2026-04-17 21:52 29.52011 -146.87980 84020 ft 1818 kts 242°
2026-04-17 21:52 29.45931 -147.00736 84152 ft 1817 kts 243°
2026-04-17 21:52 29.40013 -147.13533 84329 ft 1815 kts 243°
2026-04-17 21:52 29.34217 -147.26388 84434 ft 1814 kts 243°
2026-04-17 21:53 29.28385 -147.39210 84516 ft 1813 kts 242°
2026-04-17 21:53 29.22392 -147.51708 84667 ft 1771 kts 239°
2026-04-17 21:53 29.16134 -147.63686 84710 ft 1739 kts 233°
2026-04-17 21:53 29.08963 -147.74662 83820 ft 1711 kts 226°
2026-04-17 21:54 29.01010 -147.84440 82292 ft 1648 kts 228°